Location: Palomar Mountain Lodge
(33.3110°N, 116.8495°W)
Time: 10:39:51
(UTC-07:00)

COSMOS 2455 - Pass Details

Date: 12 July 2018
Orbit: 902 x 908 km, 67.1° (Epoch: 22 September)

Event Time Altitude Azimuth Distance (km) Brightness Sun altitude
Rises 23:21:34 0° 321° (NW) 3,534 7.0 -30.7°
Reaches altitude 10° 23:24:22 10° 311° (NW) 2,589 6.0 -30.9°
Enters shadow 23:29:12 29° 258° (WSW) 1,596 4.1 -31.3°
